User: anonymous   Login
Location: Kaarina
(60.4167°N, 22.4167°E)
Time: 12:20:04
(UTC+03:00)
Language:

Landsat 4 - Orbit

View from above orbital plane
View from above orbital plane
View from above satellite
View from above satellite

Ground track
Ground track

The orbit data is extracted from the following two-line orbital elements,

1 13367U 82072A   19291.67852852  .00000373  00000-0  22927-4 0  9993
2 13367  98.1978 178.0065 0013039 170.7440 260.9105 15.16855934 14375
Epoch (UTC): 18 October 2019 16:17:04
Eccentricity: 0.0013039
inclination: 98.1978°
perigee height: 506 km
apogee height: 524 km
right ascension of ascending node: 178.0065°
argument of perigee: 170.7440°
revolutions per day: 15.16855934
mean anomaly at epoch: 260.9105°
orbit number at epoch: 1437

The dashed part of the orbit path shows where the satellite is in the earth's shadow,  

DLR